Retour au catalogue

CZ-2C DEB

ActifSSO
NORAD 40266·DEBRIS·🇨🇳 China

Lancé Sep 28, 2014 depuis Jiuquan Satellite Launch Center

Loading…

Prochains Passages (prochaines 24 heures)

TLE

FraisSource: Space-Track

Époque: Sep 13, 2026, 17:23 UTC

1 40266U 14059F   26256.72494901  .00001565  00000-0  50064-3 0  9999
2 40266  98.3463 162.6510 0159698 317.1337  41.7488 14.33994514621360

Suivez CZ-2C DEB en temps réel avec AllMySat

Download on the App Store